Group_ship,Cruise,JD_GMT,Date_DDMMYYYY,TIME_HH:MM:SS,Lat_dec_degree,Long_dec_degree,xCO2eq_ppm,xCO2a_ppm,Pres_Equi_hPa,Pres_sealevel_hPa,EqTemp_C,SST(TSG)_C,Sal(TSG)_Permil,Water_flow_l/min,Gasflow_IR_ml/min,Temp_IR_C,Pres_IR_hPa,Ship_heading_true_degree,Ship_speed_knot,Wind_dir_rel_degree,Wind_speed_rel_m/s,fCO2W@SST_uatm,Qcflag_water,fCO2a_uatm,Qcflag_air,dfCO2_uatm,Fluoro_ug/l,Wind_speed_true_m/s,Wind_dir_true_degree,Air_temp_C,Oxygen
AOML_Explorer,Ex0713W,84.973,25032007,23:21:40,25.393,-80.029,367.05,-9.00,1019.99,1016.40,25.36,25.55,36.161,1.706,0.376,34.227,1019.99,193.700,18.900,275.000,8.750,359.65,2,-9.00,9,-9.00,0.07,12.66,57.85,23.85,230.96
AOML_Explorer,Ex0713W,84.975,25032007,23:24:13,25.380,-80.033,367.37,-9.00,1019.44,1016.20,25.36,25.54,36.172,1.705,0.376,34.169,1019.44,194.400,18.800,266.000,9.779,359.55,2,-9.00,9,-9.00,0.07,14.39,57.15,23.75,230.96
AOML_Explorer,Ex0713W,84.977,25032007,23:26:46,25.367,-80.037,367.81,-9.00,1019.55,1016.60,25.36,25.53,36.172,1.709,0.376,34.116,1019.55,199.200,18.500,255.000,5.662,359.86,2,-9.00,9,-9.00,0.06,12.43,45.81,23.87,231.02
AOML_Explorer,Ex0713W,84.979,25032007,23:29:19,25.355,-80.042,368.06,-9.00,1019.53,1016.40,25.36,25.51,36.172,1.719,0.376,34.061,1019.53,199.700,18.400,268.000,6.691,359.89,2,-9.00,9,-9.00,0.08,11.88,54.18,23.84,231.50
AOML_Explorer,Ex0713W,84.980,25032007,23:31:52,25.343,-80.047,368.04,-9.00,1019.42,1016.40,25.35,25.50,36.164,1.717,0.376,34.008,1019.42,200.200,18.400,259.000,7.721,359.89,2,-9.00,9,-9.00,0.06,13.45,54.30,23.82,231.97
AOML_Explorer,Ex0713W,84.982,25032007,23:34:25,25.331,-80.052,367.57,-9.00,1019.46,1016.40,25.33,25.50,36.163,1.691,0.375,33.957,1019.46,195.600,18.400,288.000,8.235,359.60,2,-9.00,9,-9.00,0.06,10.57,63.85,23.82,231.80
AOML_Explorer,Ex0713W,84.984,25032007,23:36:58,25.318,-80.055,366.99,-9.00,1019.49,1015.70,25.32,25.50,36.164,1.721,0.375,33.908,1019.49,195.200,18.600,273.000,11.323,359.32,2,-9.00,9,-9.00,0.07,14.64,65.68,23.75,231.75
AOML_Explorer,Ex0713W,84.986,25032007,23:39:31,25.305,-80.058,366.75,-9.00,1019.32,1015.80,25.32,25.50,36.171,1.734,0.375,33.854,1019.32,188.800,18.700,277.000,12.353,358.98,2,-9.00,9,-9.00,0.07,14.79,65.41,23.68,231.52
AOML_Explorer,Ex0713W,84.988,25032007,23:42:04,25.292,-80.061,367.01,-9.00,1019.41,1015.90,25.32,25.48,36.187,1.707,0.375,33.803,1019.41,189.200,18.800,261.000,9.265,358.93,2,-9.00,9,-9.00,0.06,14.39,48.63,23.79,232.13
AOML_Explorer,Ex0713W,84.989,25032007,23:44:37,25.279,-80.063,367.40,-9.00,1019.41,1015.80,25.32,25.51,36.186,1.700,0.375,33.758,1019.41,188.800,18.600,270.000,11.838,359.77,2,-9.00,9,-9.00,0.06,15.32,59.82,23.78,231.97
AOML_Explorer,Ex0713W,84.991,25032007,23:47:10,25.266,-80.065,367.84,-9.00,1019.59,1015.70,25.31,25.52,36.186,1.734,0.375,33.710,1019.59,189.000,18.500,272.000,10.294,360.63,2,-9.00,9,-9.00,0.06,13.77,57.75,23.76,231.92
AOML_Explorer,Ex0713W,84.993,25032007,23:49:43,25.253,-80.068,367.80,-9.00,1019.62,1015.90,25.33,25.53,36.187,1.718,0.375,33.668,1019.62,188.200,18.600,272.000,10.294,360.37,2,-9.00,9,-9.00,0.06,13.77,56.88,23.7,231.66
AOML_Explorer,Ex0713W,84.995,25032007,23:52:16,25.240,-80.070,367.59,-9.00,1019.40,1015.60,25.34,25.53,36.183,1.684,0.374,33.625,1019.40,188.900,18.600,281.000,12.353,359.96,2,-9.00,9,-9.00,0.05,14.08,68.59,23.79,231.65
AOML_Explorer,Ex0713W,84.996,25032007,23:54:49,25.227,-80.072,367.52,-9.00,1019.41,1015.90,25.34,25.55,36.177,1.703,0.375,33.588,1019.41,188.600,18.600,271.000,10.294,360.08,2,-9.00,9,-9.00,0.05,13.93,56.61,23.87,231.61
AOML_Explorer,Ex0713W,84.998,25032007,23:57:22,25.214,-80.075,367.27,-9.00,1019.58,1016.00,25.35,25.55,36.176,1.696,0.375,33.545,1019.58,188.800,18.500,276.000,9.779,359.77,2,-9.00,9,-9.00,0.05,12.86,58.27,23.79,231.67
AOML_Explorer,Ex0713W,85.000,25032007,23:59:55,25.201,-80.077,366.99,-9.00,1019.52,1015.90,25.36,25.56,36.173,1.715,0.375,33.505,1019.52,188.300,18.500,282.000,10.809,359.52,2,-9.00,9,-9.00,0.05,12.76,64.48,23.66,231.49
AOML_Explorer,Ex0713W,85.015,26032007,0:21:40,25.090,-80.094,365.56,-9.00,1019.51,1016.10,25.40,25.58,36.154,1.739,0.375,33.265,1019.51,186.900,18.400,260.000,10.294,357.91,2,-9.00,9,-9.00,0.08,14.98,50.15,23.85,230.19
AOML_Explorer,Ex0713W,85.017,26032007,0:24:13,25.077,-80.096,366.11,-9.00,1019.56,1016.20,25.40,25.58,36.157,1.705,0.375,33.235,1019.56,190.700,18.500,261.000,10.294,358.41,2,-9.00,9,-9.00,0.08,14.93,54.57,23.88,230.57
AOML_Explorer,Ex0713W,85.019,26032007,0:26:46,25.065,-80.100,366.74,-9.00,1019.61,1016.20,25.40,25.57,36.163,1.712,0.374,33.203,1019.61,196.300,18.400,256.000,8.235,358.91,2,-9.00,9,-9.00,0.08,13.91,51.69,23.86,230.69
AOML_Explorer,Ex0713W,85.020,26032007,0:29:19,25.052,-80.105,366.87,-9.00,1019.64,1016.40,25.40,25.57,36.169,1.721,0.374,33.177,1019.64,201.500,18.300,258.000,9.265,358.99,2,-9.00,9,-9.00,0.07,14.56,60.30,23.92,230.65
AOML_Explorer,Ex0713W,85.022,26032007,0:31:52,25.040,-80.110,366.98,-9.00,1019.60,1016.70,25.39,25.56,36.171,1.727,0.374,33.147,1019.60,201.100,18.200,244.000,5.662,359.22,2,-9.00,9,-9.00,0.07,12.89,44.77,23.9,230.76
AOML_Explorer,Ex0713W,85.024,26032007,0:34:25,25.028,-80.115,367.20,-9.00,1019.67,1016.90,25.38,25.57,36.169,1.712,0.375,33.120,1019.67,200.700,18.300,255.000,8.750,359.60,2,-9.00,9,-9.00,0.08,14.40,57.13,23.91,230.73
AOML_Explorer,Ex0713W,85.026,26032007,0:36:58,25.016,-80.121,367.19,-9.00,1019.69,1016.90,25.38,25.58,36.167,1.740,0.375,33.093,1019.69,204.800,18.400,259.000,7.206,359.74,2,-9.00,9,-9.00,0.07,13.00,58.26,23.93,230.52
AOML_Explorer,Ex0713W,85.027,26032007,0:39:31,25.005,-80.127,367.36,-9.00,1019.78,1016.60,25.39,25.58,36.162,1.705,0.374,33.065,1019.78,204.800,18.300,265.000,7.721,359.86,2,-9.00,9,-9.00,0.08,12.70,62.15,23.91,230.33
AOML_Explorer,Ex0713W,85.029,26032007,0:42:04,24.993,-80.133,367.41,-9.00,1019.75,1017.10,25.40,25.59,36.155,1.733,0.374,33.040,1019.75,204.100,18.200,266.000,8.235,359.92,2,-9.00,9,-9.00,0.08,12.90,64.38,23.94,230.48
AOML_Explorer,Ex0713W,85.031,26032007,0:44:37,24.981,-80.139,367.44,-9.00,1019.81,1016.60,25.40,25.60,36.157,1.711,0.375,33.012,1019.81,201.800,18.200,275.000,7.206,360.03,2,-9.00,9,-9.00,0.08,11.32,61.48,23.96,230.53
AOML_Explorer,Ex0713W,85.033,26032007,0:47:10,24.969,-80.143,367.27,-9.00,1019.76,1016.70,25.40,25.59,36.166,1.729,0.375,32.985,1019.76,195.200,18.300,264.000,7.721,359.73,2,-9.00,9,-9.00,0.08,12.74,52.26,23.97,230.62
AOML_Explorer,Ex0713W,85.035,26032007,0:49:43,24.956,-80.146,367.47,-9.00,1019.79,1016.10,25.41,25.58,36.173,1.697,0.374,32.962,1019.79,189.100,18.500,280.000,11.323,359.71,2,-9.00,9,-9.00,0.08,13.28,65.74,23.84,230.59
AOML_Explorer,Ex0713W,85.036,26032007,0:52:16,24.943,-80.148,367.58,-9.00,1019.79,1016.40,25.40,25.58,36.179,1.713,0.374,32.941,1019.79,188.600,18.500,271.000,9.779,359.83,2,-9.00,9,-9.00,0.08,13.34,55.43,23.89,230.29
AOML_Explorer,Ex0713W,85.038,26032007,0:54:49,24.930,-80.151,368.06,-9.00,1020.08,1016.10,25.40,25.57,36.186,1.724,0.375,32.916,1020.08,188.200,18.400,269.000,12.353,360.35,2,-9.00,9,-9.00,0.10,15.50,61.55,23.88,229.57
AOML_Explorer,Ex0713W,85.040,26032007,0:57:22,24.917,-80.153,368.32,-9.00,1019.94,1016.50,25.39,25.57,36.193,1.692,0.375,32.893,1019.94,187.100,18.500,266.000,10.294,360.66,2,-9.00,9,-9.00,0.09,14.28,53.71,23.95,229.95
AOML_Explorer,Ex0713W,85.042,26032007,0:59:55,24.904,-80.155,368.99,-9.00,1019.93,1016.60,25.39,25.55,36.204,1.700,0.374,32.870,1019.93,189.200,17.700,263.000,9.265,361.11,2,-9.00,9,-9.00,0.11,13.66,52.51,23.97,229.78
AOML_Explorer,Ex0713W,85.057,26032007,1:21:40,24.810,-80.207,366.83,-9.00,1019.93,1017.30,25.35,25.55,36.327,1.673,0.374,32.763,1019.93,221.200,18.100,240.000,5.147,359.53,2,-9.00,9,-9.00,0.10,12.85,61.69,23.94,230.21
AOML_Explorer,Ex0713W,85.058,26032007,1:24:13,24.800,-80.217,365.82,-9.00,1019.83,1017.30,25.38,25.55,36.300,1.664,0.374,32.747,1019.83,221.200,17.900,227.000,4.118,358.13,2,-9.00,9,-9.00,0.11,12.55,54.97,23.92,229.96
AOML_Explorer,Ex0713W,85.060,26032007,1:26:46,24.791,-80.226,366.15,-9.00,1019.90,1017.20,25.36,25.52,36.269,1.638,0.374,32.730,1019.90,222.000,18.000,251.000,5.147,358.20,2,-9.00,9,-9.00,0.14,12.18,65.56,23.96,228.81
AOML_Explorer,Ex0713W,85.062,26032007,1:29:19,24.781,-80.235,367.09,-9.00,1019.90,1017.40,25.36,25.55,36.217,1.640,0.374,32.711,1019.90,222.300,18.000,259.000,3.603,359.69,2,-9.00,9,-9.00,0.11,10.76,62.73,23.96,228.85
AOML_Explorer,Ex0713W,85.064,26032007,1:31:52,24.772,-80.246,369.24,-9.00,1019.94,1017.40,25.34,25.54,36.191,1.658,0.374,32.691,1019.94,229.500,18.100,211.000,3.603,361.89,2,-9.00,9,-9.00,0.10,12.72,57.90,23.9,229.66
AOML_Explorer,Ex0713W,85.066,26032007,1:34:25,24.764,-80.257,369.97,-9.00,1019.94,1017.40,25.36,25.58,36.164,1.662,0.374,32.673,1019.94,233.300,18.300,196.000,3.088,362.97,2,-9.00,9,-9.00,0.09,12.49,56.90,23.81,230.14
AOML_Explorer,Ex0713W,85.067,26032007,1:36:58,24.757,-80.269,369.47,-9.00,1019.94,1017.40,25.35,25.63,36.155,1.648,0.374,32.655,1019.94,233.100,18.200,218.000,4.118,363.20,2,-9.00,9,-9.00,0.07,13.01,64.04,23.8,230.90
AOML_Explorer,Ex0713W,85.069,26032007,1:39:31,24.749,-80.280,368.31,-9.00,1019.94,1017.40,25.40,25.64,36.163,1.679,0.374,32.638,1019.94,233.600,18.200,205.000,4.118,361.53,2,-9.00,9,-9.00,0.07,13.34,60.28,23.88,230.91
AOML_Explorer,Ex0713W,85.071,26032007,1:42:04,24.741,-80.292,367.50,-9.00,1019.95,1017.40,25.43,25.64,36.183,1.676,0.373,32.625,1019.95,233.600,18.200,196.000,3.603,360.33,2,-9.00,9,-9.00,0.07,12.93,57.26,23.82,230.20
AOML_Explorer,Ex0713W,85.073,26032007,1:44:37,24.733,-80.303,367.68,-9.00,1019.93,1017.40,25.44,25.65,36.202,1.680,0.374,32.609,1019.93,232.700,18.200,233.000,4.118,360.37,2,-9.00,9,-9.00,0.07,12.45,67.14,23.92,230.09
AOML_Explorer,Ex0713W,85.074,26032007,1:47:10,24.726,-80.314,368.85,-9.00,1019.99,1017.40,25.45,25.61,36.184,1.688,0.374,32.598,1019.99,233.900,18.200,231.000,4.118,360.79,2,-9.00,9,-9.00,0.07,12.51,68.16,23.87,230.60
AOML_Explorer,Ex0713W,85.076,26032007,1:49:43,24.718,-80.326,369.59,-9.00,1019.98,1017.40,25.45,25.61,36.173,1.729,0.374,32.582,1019.98,232.900,18.200,213.000,3.088,361.64,2,-9.00,9,-9.00,0.07,12.18,60.77,23.92,230.59
AOML_Explorer,Ex0713W,85.078,26032007,1:52:16,24.710,-80.337,367.97,-9.00,1020.04,1017.40,25.42,25.61,36.176,1.683,0.374,32.569,1020.04,232.700,18.300,212.000,5.147,360.54,2,-9.00,9,-9.00,0.06,14.12,62.81,23.92,230.86
AOML_Explorer,Ex0713W,85.080,26032007,1:54:49,24.702,-80.349,367.20,-9.00,1020.06,1017.40,25.42,25.60,36.181,1.675,0.374,32.555,1020.06,233.400,18.300,253.000,3.088,359.55,2,-9.00,9,-9.00,0.07,10.85,68.81,24,230.83
AOML_Explorer,Ex0713W,85.082,26032007,1:57:22,24.694,-80.360,366.93,-9.00,1020.05,1017.50,25.42,25.59,36.180,1.722,0.374,32.545,1020.05,232.800,18.200,242.000,6.176,359.22,2,-9.00,9,-9.00,0.07,13.63,76.07,23.98,230.71
AOML_Explorer,Ex0713W,85.083,26032007,1:59:55,24.687,-80.371,366.69,-9.00,1020.03,1017.40,25.41,25.59,36.182,1.699,0.374,32.533,1020.03,233.900,18.300,248.000,3.603,359.10,2,-9.00,9,-9.00,0.07,11.42,70.30,24.02,230.74
AOML_Explorer,Ex0713W,85.098,26032007,2:21:40,24.621,-80.469,363.71,-9.00,1020.12,1017.60,25.24,25.41,36.213,1.688,0.373,32.500,1020.12,233.000,18.000,234.000,6.691,356.09,2,-9.00,9,-9.00,0.06,14.47,74.32,24,231.41
AOML_Explorer,Ex0713W,85.100,26032007,2:24:13,24.614,-80.480,363.76,-9.00,1020.11,1017.50,25.24,25.41,36.214,1.675,0.374,32.488,1020.11,233.200,18.000,252.000,5.147,356.15,2,-9.00,9,-9.00,0.06,12.20,76.45,24.01,231.64
AOML_Explorer,Ex0713W,85.102,26032007,2:26:46,24.606,-80.491,364.12,-9.00,1020.05,1017.50,25.24,25.41,36.213,1.690,0.374,32.479,1020.05,233.100,18.200,243.000,5.147,356.56,2,-9.00,9,-9.00,0.06,12.67,73.67,23.99,231.75
AOML_Explorer,Ex0713W,85.104,26032007,2:29:19,24.598,-80.502,364.52,-9.00,1020.11,1017.60,25.23,25.41,36.217,1.704,0.374,32.469,1020.11,232.500,17.900,220.000,4.632,357.08,2,-9.00,9,-9.00,0.06,13.25,65.23,23.97,231.70
AOML_Explorer,Ex0713W,85.105,26032007,2:31:52,24.591,-80.514,364.90,-9.00,1020.10,1017.60,25.23,25.42,36.223,1.658,0.374,32.456,1020.10,232.600,18.000,233.000,4.118,357.54,2,-9.00,9,-9.00,0.05,12.31,67.47,24.01,231.83
AOML_Explorer,Ex0713W,85.107,26032007,2:34:25,24.583,-80.525,365.53,-9.00,1020.17,1017.50,25.24,25.40,36.232,1.685,0.374,32.447,1020.17,235.600,18.100,210.000,4.118,357.77,2,-9.00,9,-9.00,0.07,13.12,64.79,23.93,231.31
AOML_Explorer,Ex0713W,85.109,26032007,2:36:58,24.576,-80.537,366.12,-9.00,1020.12,1017.60,25.24,25.40,36.228,1.719,0.374,32.435,1020.12,242.300,18.000,171.000,1.544,358.45,2,-9.00,9,-9.00,0.06,10.80,60.75,23.92,231.37
AOML_Explorer,Ex0713W,85.111,26032007,2:39:31,24.570,-80.550,367.23,-9.00,1020.15,1017.60,25.23,25.41,36.227,1.704,0.374,32.424,1020.15,240.600,18.200,209.000,3.088,359.80,2,-9.00,9,-9.00,0.06,12.18,67.21,23.92,231.64
AOML_Explorer,Ex0713W,85.113,26032007,2:42:04,24.564,-80.562,367.92,-9.00,1020.14,1017.60,25.23,25.39,36.229,1.696,0.374,32.414,1020.14,240.700,18.100,212.000,5.147,360.14,2,-9.00,9,-9.00,0.05,14.05,71.01,23.95,231.85
AOML_Explorer,Ex0713W,85.114,26032007,2:44:37,24.558,-80.574,367.96,-9.00,1020.13,1017.60,25.23,25.35,36.231,1.694,0.374,32.404,1020.13,240.400,18.300,213.000,3.603,359.63,2,-9.00,9,-9.00,0.05,12.56,68.86,24.01,232.29
AOML_Explorer,Ex0713W,85.116,26032007,2:47:10,24.552,-80.586,368.13,-9.00,1020.12,1017.60,25.21,25.32,36.236,1.659,0.374,32.395,1020.12,239.800,18.300,207.000,1.544,359.63,2,-9.00,9,-9.00,0.05,10.66,63.27,24.02,232.45
AOML_Explorer,Ex0713W,85.118,26032007,2:49:43,24.545,-80.598,368.14,-9.00,1020.12,1017.50,25.19,25.27,36.244,1.683,0.373,32.389,1020.12,238.800,18.000,219.000,3.603,359.23,2,-9.00,9,-9.00,0.05,12.33,69.34,23.98,232.52
AOML_Explorer,Ex0713W,85.120,26032007,2:52:16,24.539,-80.610,367.89,-9.00,1020.05,1017.60,25.16,25.01,36.295,1.688,0.374,32.380,1020.05,239.400,17.900,261.000,2.059,355.81,2,-9.00,9,-9.00,0.06,9.83,71.58,23.95,232.99
AOML_Explorer,Ex0713W,85.121,26032007,2:54:49,24.533,-80.623,367.46,-9.00,1020.01,1017.50,25.09,24.98,36.216,1.629,0.374,32.373,1020.01,239.600,18.000,226.000,4.632,355.78,2,-9.00,9,-9.00,0.07,12.95,74.49,23.95,232.48
AOML_Explorer,Ex0713W,85.123,26032007,2:57:22,24.526,-80.635,365.84,-9.00,1020.03,1017.40,24.89,25.01,36.214,1.644,0.374,32.368,1020.03,239.600,18.100,213.000,4.632,357.68,2,-9.00,9,-9.00,0.06,13.48,70.50,23.92,232.64
AOML_Explorer,Ex0713W,85.125,26032007,2:59:55,24.519,-80.647,363.97,-9.00,1019.96,1017.40,24.87,25.03,36.217,1.656,0.374,32.359,1019.96,238.100,18.100,235.000,2.059,356.59,2,-9.00,9,-9.00,0.06,10.65,67.49,23.91,232.60
AOML_Explorer,Ex0713W,85.140,26032007,3:21:40,24.459,-80.748,366.42,-9.00,1019.93,1017.30,25.36,25.59,36.205,1.640,0.373,32.347,1019.93,233.500,18.000,222.000,4.118,359.56,2,-9.00,9,-9.00,0.06,12.61,66.77,23.96,230.95
AOML_Explorer,Ex0713W,85.142,26032007,3:24:13,24.452,-80.759,367.18,-9.00,1019.92,1017.30,25.37,25.61,36.209,1.658,0.373,32.343,1019.92,233.500,17.900,233.000,6.176,360.38,2,-9.00,9,-9.00,0.06,13.69,75.93,23.98,230.93
AOML_Explorer,Ex0713W,85.144,26032007,3:26:46,24.444,-80.770,367.54,-9.00,1019.91,1017.30,25.40,25.63,36.214,1.668,0.374,32.335,1019.91,232.900,17.900,244.000,4.118,360.70,2,-9.00,9,-9.00,0.06,11.51,72.37,24.02,230.36
AOML_Explorer,Ex0713W,85.145,26032007,3:29:19,24.437,-80.782,368.41,-9.00,1019.95,1017.40,25.41,25.63,36.222,1.705,0.373,32.329,1019.95,235.700,18.000,248.000,4.118,361.33,2,-9.00,9,-9.00,0.07,11.39,75.98,23.96,229.73
AOML_Explorer,Ex0713W,85.147,26032007,3:31:52,24.429,-80.793,369.53,-9.00,1019.96,1017.40,25.43,25.62,36.232,1.632,0.374,32.319,1019.96,233.600,17.900,242.000,5.147,361.99,2,-9.00,9,-9.00,0.09,12.39,75.72,24.01,229.43
AOML_Explorer,Ex0713W,85.149,26032007,3:34:25,24.422,-80.804,370.37,-9.00,1019.98,1017.40,25.44,25.57,36.239,1.672,0.374,32.313,1019.98,233.700,18.000,263.000,3.603,362.05,2,-9.00,9,-9.00,0.08,10.21,74.91,24.02,229.54
AOML_Explorer,Ex0713W,85.151,26032007,3:36:58,24.414,-80.816,370.13,-9.00,1020.00,1017.40,25.42,25.58,36.232,1.660,0.374,32.304,1020.00,233.800,17.800,215.000,4.632,362.18,2,-9.00,9,-9.00,0.08,13.20,66.29,24.03,229.83
AOML_Explorer,Ex0713W,85.152,26032007,3:39:31,24.407,-80.827,369.09,-9.00,1019.98,1017.40,25.39,25.57,36.231,1.694,0.374,32.296,1019.98,234.100,18.000,189.000,3.088,361.38,2,-9.00,9,-9.00,0.08,12.40,57.37,24.05,230.11
AOML_Explorer,Ex0713W,85.154,26032007,3:42:04,24.399,-80.838,368.34,-9.00,1020.02,1017.50,25.38,25.54,36.234,1.676,0.374,32.291,1020.02,234.900,18.200,225.000,2.059,360.42,2,-9.00,9,-9.00,0.07,10.89,63.10,24.11,230.30
AOML_Explorer,Ex0713W,85.156,26032007,3:44:37,24.392,-80.850,367.94,-9.00,1020.00,1017.50,25.37,25.47,36.254,1.668,0.373,32.283,1020.00,239.800,18.200,225.000,1.029,359.09,2,-9.00,9,-9.00,0.09,10.17,64.50,24.05,229.92
AOML_Explorer,Ex0713W,85.158,26032007,3:47:10,24.386,-80.863,367.23,-9.00,1020.05,1017.40,25.35,25.44,36.265,1.669,0.374,32.279,1020.05,242.900,18.000,209.000,2.574,358.39,2,-9.00,9,-9.00,0.11,11.61,69.46,24.05,229.09
AOML_Explorer,Ex0713W,85.160,26032007,3:49:43,24.380,-80.875,366.72,-9.00,1020.07,1017.40,25.29,25.43,36.271,1.670,0.374,32.275,1020.07,242.800,18.000,207.000,4.632,358.64,2,-9.00,9,-9.00,0.12,13.62,71.85,23.99,228.96
AOML_Explorer,Ex0713W,85.161,26032007,3:52:16,24.375,-80.888,366.59,-9.00,1019.99,1017.40,25.27,25.42,36.275,1.654,0.373,32.270,1019.99,243.500,18.300,199.000,5.147,358.62,2,-9.00,9,-9.00,0.13,14.39,70.57,23.86,228.81
AOML_Explorer,Ex0713W,85.163,26032007,3:54:49,24.369,-80.901,366.73,-9.00,1019.93,1017.40,25.25,25.41,36.274,1.634,0.373,32.266,1019.93,243.700,18.100,207.000,5.147,358.87,2,-9.00,9,-9.00,0.13,14.13,73.14,23.91,229.42
AOML_Explorer,Ex0713W,85.165,26032007,3:57:22,24.363,-80.914,367.04,-9.00,1019.98,1017.40,25.24,25.41,36.273,1.665,0.373,32.265,1019.98,242.600,18.300,210.000,4.632,359.41,2,-9.00,9,-9.00,0.12,13.65,72.93,23.95,229.65
AOML_Explorer,Ex0713W,85.167,26032007,3:59:55,24.357,-80.926,366.85,-9.00,1019.96,1017.30,25.24,25.41,36.276,1.675,0.374,32.260,1019.96,243.300,18.400,201.000,4.632,359.17,2,-9.00,9,-9.00,0.13,13.92,70.39,23.88,229.64
AOML_Explorer,Ex0713W,85.182,26032007,4:21:40,24.307,-81.038,368.19,-9.00,1019.85,1017.20,25.19,25.35,36.310,1.635,0.374,32.273,1019.85,244.400,18.700,207.000,4.118,360.46,2,-9.00,9,-9.00,0.12,13.45,72.48,23.99,229.49
AOML_Explorer,Ex0713W,85.183,26032007,4:24:13,24.301,-81.051,368.35,-9.00,1019.80,1017.20,25.18,25.36,36.302,1.679,0.373,32.271,1019.80,243.600,18.900,208.000,4.118,360.78,2,-9.00,9,-9.00,0.12,13.49,72.04,23.95,229.63
AOML_Explorer,Ex0713W,85.185,26032007,4:26:46,24.295,-81.064,368.31,-9.00,1019.81,1017.20,25.19,25.37,36.302,1.676,0.373,32.266,1019.81,244.800,18.700,208.000,2.574,360.67,2,-9.00,9,-9.00,0.12,12.04,70.57,23.98,229.90
AOML_Explorer,Ex0713W,85.187,26032007,4:29:19,24.290,-81.077,368.17,-9.00,1019.79,1017.00,25.20,25.36,36.304,1.659,0.373,32.260,1019.79,243.800,18.900,289.000,1.029,360.30,2,-9.00,9,-9.00,0.12,9.48,69.51,24.01,229.92
AOML_Explorer,Ex0713W,85.189,26032007,4:31:52,24.284,-81.091,367.93,-9.00,1019.72,1017.10,25.20,25.36,36.305,1.678,0.374,32.254,1019.72,245.300,19.000,244.000,4.118,360.11,2,-9.00,9,-9.00,0.11,12.24,82.81,23.99,230.04
AOML_Explorer,Ex0713W,85.191,26032007,4:34:25,24.278,-81.104,367.93,-9.00,1019.65,1017.00,25.19,25.35,36.311,1.694,0.373,32.251,1019.65,243.600,19.000,249.000,4.118,360.00,2,-9.00,9,-9.00,0.11,11.94,82.69,23.97,229.96
AOML_Explorer,Ex0713W,85.192,26032007,4:36:58,24.272,-81.117,367.83,-9.00,1019.61,1016.90,25.19,25.34,36.313,1.680,0.374,32.247,1019.61,245.500,19.000,194.000,1.544,359.80,2,-9.00,9,-9.00,0.11,11.31,67.68,24,230.00
AOML_Explorer,Ex0713W,85.194,26032007,4:39:31,24.266,-81.131,367.90,-9.00,1019.53,1016.90,25.18,25.32,36.337,1.675,0.374,32.243,1019.53,245.200,18.700,226.000,3.603,359.62,2,-9.00,9,-9.00,0.12,12.51,77.33,23.98,228.33
AOML_Explorer,Ex0713W,85.196,26032007,4:42:04,24.261,-81.144,368.00,-9.00,1019.57,1016.90,25.17,25.33,36.353,1.657,0.374,32.237,1019.57,245.600,18.800,216.000,4.118,359.98,2,-9.00,9,-9.00,0.10,13.30,75.89,23.94,227.88
AOML_Explorer,Ex0713W,85.198,26032007,4:44:37,24.255,-81.157,370.04,-9.00,1019.51,1016.90,25.16,25.33,36.359,1.690,0.373,32.235,1019.51,245.100,18.800,218.000,4.632,362.30,2,-9.00,9,-9.00,0.09,13.70,76.83,23.88,228.50
AOML_Explorer,Ex0713W,85.199,26032007,4:47:10,24.250,-81.171,370.81,-9.00,1019.51,1016.90,25.16,25.34,36.361,1.633,0.373,32.232,1019.51,246.200,18.700,216.000,4.118,363.09,2,-9.00,9,-9.00,0.08,13.29,76.55,23.96,229.62
AOML_Explorer,Ex0713W,85.201,26032007,4:49:43,24.244,-81.184,370.27,-9.00,1019.51,1016.90,25.17,25.35,36.356,1.662,0.374,32.229,1019.51,245.100,18.700,199.000,2.574,362.65,2,-9.00,9,-9.00,0.08,12.17,69.10,23.91,230.15
AOML_Explorer,Ex0713W,85.203,26032007,4:52:16,24.239,-81.197,369.04,-9.00,1019.59,1016.90,25.18,25.35,36.351,1.671,0.374,32.227,1019.59,246.600,18.700,219.000,3.603,361.30,2,-9.00,9,-9.00,0.07,12.75,76.33,23.9,230.19
AOML_Explorer,Ex0713W,85.205,26032007,4:54:49,24.234,-81.211,367.67,-9.00,1019.19,1016.90,25.18,25.35,36.349,1.681,0.374,32.228,1019.19,247.200,18.700,216.000,3.088,359.73,2,-9.00,9,-9.00,0.07,12.35,75.53,23.87,230.11
AOML_Explorer,Ex0713W,85.207,26032007,4:57:22,24.228,-81.224,367.28,-9.00,1019.10,1016.80,25.18,25.35,36.345,1.658,0.373,32.223,1019.10,243.600,18.700,235.000,2.574,359.33,2,-9.00,9,-9.00,0.06,11.44,73.81,23.93,230.37
AOML_Explorer,Ex0713W,85.208,26032007,4:59:55,24.222,-81.237,367.24,-9.00,1019.11,1016.80,25.18,25.35,36.344,1.673,0.374,32.223,1019.11,243.100,18.600,259.000,4.632,359.34,2,-9.00,9,-9.00,0.06,11.68,86.03,23.97,230.47
AOML_Explorer,Ex0713W,85.223,26032007,5:21:40,24.172,-81.349,366.87,-9.00,1019.12,1016.70,25.18,25.31,36.362,1.678,0.373,32.238,1019.12,242.500,19.100,240.000,5.147,358.28,2,-9.00,9,-9.00,0.08,13.35,81.45,24.02,228.68
AOML_Explorer,Ex0713W,85.225,26032007,5:24:13,24.166,-81.362,367.60,-9.00,1019.08,1016.80,25.17,25.29,36.358,1.688,0.373,32.230,1019.08,241.900,19.100,239.000,3.603,358.90,2,-9.00,9,-9.00,0.10,12.24,76.05,24.01,227.90
AOML_Explorer,Ex0713W,85.227,26032007,5:26:46,24.159,-81.375,369.87,-9.00,1019.09,1016.80,25.14,25.29,36.356,1.634,0.373,32.223,1019.09,242.500,19.200,239.000,2.059,361.73,2,-9.00,9,-9.00,0.10,11.16,71.35,23.95,228.29
AOML_Explorer,Ex0713W,85.229,26032007,5:29:19,24.153,-81.388,371.40,-9.00,1019.11,1016.80,25.13,25.29,36.357,1.677,0.373,32.214,1019.11,241.600,19.200,251.000,0.000,363.32,2,-9.00,9,-9.00,0.09,9.89,61.89,24.09,227.03
AOML_Explorer,Ex0713W,85.234,26032007,5:36:58,24.133,-81.428,368.23,-9.00,1019.02,1016.80,25.21,25.46,36.262,1.699,0.373,32.183,1019.02,242.000,19.400,195.000,1.029,361.43,2,-9.00,9,-9.00,0.09,10.99,63.16,24.01,230.91
AOML_Explorer,Ex0713W,85.236,26032007,5:39:31,24.127,-81.441,367.15,-9.00,1019.00,1016.70,25.24,25.48,36.264,1.678,0.373,32.175,1019.00,242.700,19.300,166.000,1.544,360.20,2,-9.00,9,-9.00,0.11,11.39,60.66,23.98,229.55
AOML_Explorer,Ex0713W,85.238,26032007,5:42:04,24.120,-81.454,366.78,-9.00,1019.02,1016.70,25.27,25.53,36.247,1.386,0.373,32.163,1019.02,243.100,19.200,157.000,2.574,360.13,2,-9.00,9,-9.00,0.09,12.25,57.54,24.01,229.60
AOML_Explorer,Ex0713W,85.239,26032007,5:44:37,24.114,-81.468,367.52,-9.00,1019.00,1016.80,25.29,25.62,36.211,1.371,0.373,32.153,1019.00,241.900,19.400,210.000,0.515,361.77,2,-9.00,9,-9.00,0.06,10.39,63.30,24.02,230.75
AOML_Explorer,Ex0713W,85.241,26032007,5:47:10,24.108,-81.481,367.91,-9.00,1018.96,1016.70,25.34,25.66,36.213,1.445,0.373,32.143,1018.96,242.000,19.200,202.000,3.603,362.01,2,-9.00,9,-9.00,0.05,13.35,67.37,24.06,230.86
AOML_Explorer,Ex0713W,85.243,26032007,5:49:43,24.101,-81.494,367.03,-9.00,1018.90,1016.70,25.41,25.68,36.214,1.359,0.373,32.135,1018.90,241.700,19.100,215.000,1.544,360.31,2,-9.00,9,-9.00,0.05,11.19,65.90,24.11,230.83
AOML_Explorer,Ex0713W,85.245,26032007,5:52:16,24.095,-81.507,367.14,-9.00,1018.92,1016.60,25.45,25.69,36.216,1.387,0.374,32.129,1018.92,242.900,19.100,255.000,3.088,359.96,2,-9.00,9,-9.00,0.05,11.23,78.12,24.17,230.79
AOML_Explorer,Ex0713W,85.246,26032007,5:54:49,24.089,-81.520,367.34,-9.00,1018.89,1016.60,25.46,25.69,36.220,1.361,0.373,32.122,1018.89,244.600,18.800,250.000,3.603,359.87,2,-9.00,9,-9.00,0.04,11.74,79.66,24.15,230.78